This is the latest recevied weather packets stored in our database for station/object KR4ELZ. If no packets are shown the sender has not sent any weather packets the latest 10 day(s).
| Time | Temp. | Humidity | Pressure | Rain* | Wind** | Luminosity | Snow |
|---|---|---|---|---|---|---|---|
| 1777612918 | 10.56° C | 82% | 1015.3 hPa | 0 mm | - | 0 W/m² | - |
| 1777612613 | 11.11° C | 82% | 1015.3 hPa | 0 mm | - | 0 W/m² | - |
| 1777612309 | 10.56° C | 81% | 1015.3 hPa | 0 mm | - | 0 W/m² | - |
| 1777612004 | 11.11° C | 82% | 1015.4 hPa | 0 mm | - | 0 W/m² | - |
| 1777611700 | 11.11° C | 83% | 1015.3 hPa | 0 mm | - | 0 W/m² | - |
| 1777611396 | 11.11° C | 82% | 1015.2 hPa | 0 mm | - | 0 W/m² | - |
| 1777611094 | 11.11° C | 83% | 1015.2 hPa | 0 mm | - | 0 W/m² | - |
| 1777610794 | 11.11° C | 83% | 1015.2 hPa | 0 mm | - | 0 W/m² | - |
| 1777610494 | 11.11° C | 83% | 1015.3 hPa | 0 mm | - | 0 W/m² | - |
| 1777610189 | 11.11° C | 82% | 1015.3 hPa | 0 mm | - | 0 W/m² | - |
| 1777609886 | 11.67° C | 81% | 1015.6 hPa | 0 mm | - | 0 W/m² | - |
| 1777609583 | 11.67° C | 79% | 1015.5 hPa | 0 mm | - | 0 W/m² | - |
| 1777609280 | 11.67° C | 79% | 1015.6 hPa | 0 mm | - | 0 W/m² | - |
| 1777608978 | 11.67° C | 81% | 1015.5 hPa | 0 mm | - | 0 W/m² | - |
| 1777608674 | 11.67° C | 80% | 1015.5 hPa | 0 mm | - | 0 W/m² | - |
| 1777608372 | 11.67° C | 78% | 1015.8 hPa | 0 mm | - | 0 W/m² | - |
| 1777608070 | 11.67° C | 77% | 1015.9 hPa | 0 mm | - | 0 W/m² | - |
| 1777607765 | 11.67° C | 77% | 1015.8 hPa | 0 mm | - | 0 W/m² | - |
| 1777607462 | 12.22° C | 78% | 1015.8 hPa | 0 mm | - | 0 W/m² | - |
| 1777607158 | 11.67° C | 77% | 1015.7 hPa | 0 mm | - | 0 W/m² | - |
| 1777606854 | 12.22° C | 77% | 1015.7 hPa | 0 mm | - | 0 W/m² | - |
| 1777606550 | 12.22° C | 78% | 1015.6 hPa | 0 mm | - | 0 W/m² | - |
| 1777606245 | 12.22° C | 77% | 1015.8 hPa | 0 mm | - | 0 W/m² | - |
| 1777605941 | 12.22° C | 78% | 1015.5 hPa | 0 mm | - | 0 W/m² | - |
| 1777605637 | 12.78° C | 77% | 1015.3 hPa | 0 mm | - | 0 W/m² | - |
* Rain latest hour (hover to see other rain measurements)
** Current wind speed in m/s (hover to see current wind gust speed)